Location: Newark
(44.4156°N, 12.1972°E)
Time: 01:38:49
(UTC+00:00)

STARLINK-1125 - Pass Details

Date: 31 January 2020
Orbit: 348 x 351 km, 53.0° (Epoch: 17 February)

Event Time Altitude Azimuth Distance (km) Brightness Sun altitude
Rises 17:02:23 0° 306° (NW) 2,171 7.3 -8.2°
Reaches altitude 10° 17:04:27 10° 312° (NW) 1,325 6.0 -8.6°
Maximum altitude 17:07:19 47° 29° (NNE) 478 3.0 -9.1°
Enters shadow 17:09:58 12° 104° (ESE) 1,236 4.9 -9.5°
